Location: Blazny
(46.0612°N, 84.4033°W)
Time: 20:19:30
(UTC-04:00)

Envisat - Pass Details

Date: 15 September 2024
Orbit: 762 x 764 km, 98.3° (Epoch: 11 October)

Event Time Altitude Azimuth Distance (km) Brightness Sun altitude
Rises 03:28:39 0° 30° (NNE) 3,236 7.3 -34.8°
Reaches altitude 10° 03:31:57 10° 53° (NE) 2,304 6.2 -34.5°
Maximum altitude 03:34:56 16° 89° (E) 1,937 5.4 -34.2°
Enters shadow 03:36:00 15° 104° (ESE) 1,986 5.3 -34.1°
